Location: ????????
(41.2031°N, 22.5756°E)
Time: 15:52:45
(UTC+00:00)

NOSS 3-2 (C) - Pass Details

Date: 01 December 2020
Orbit: 789 x 1424 km, 63.4° (Epoch: 09 January)

Event Time Altitude Azimuth Distance (km) Brightness Sun altitude
Rises 16:18:37 0° 180° (S) 3,290 6.5 -14.2°
Reaches altitude 10° 16:21:14 10° 169° (S) 2,400 5.6 -14.7°
Maximum altitude 16:25:51 28° 111° (ESE) 1,558 4.2 -15.5°
Enters shadow 16:27:43 24° 81° (E) 1,771 4.2 -15.8°
